• en France
  • Liste des pays
  • À 7 jours
  • Température de l'eau
  • Carte satellitaire
  • Carte météo
  • Widgets météo
  • user-avatar
    Se connecter

    Météo par heure à Hamhŭng

    Ce jour, 21 Mai, Lundi

    Heure Température Précipitation Vent Pression Humidité
    00:00 +12°C° 0 mm 1 m/s 764 mmHg 60%
    01:00 +12°C° 0 mm 1 m/s 764 mmHg 55%
    02:00 +12°C° 0 mm 1 m/s 764 mmHg 50%
    03:00 +11°C° 0 mm 1 m/s 764 mmHg 42%
    04:00 +11°C° 0 mm 1 m/s 764 mmHg 41%
    05:00 +12°C° 0 mm 1 m/s 764 mmHg 40%
    06:00 +12°C° 0 mm 1 m/s 764 mmHg 39%
    07:00 +15°C° 0 mm 1 m/s 763 mmHg 35%
    08:00 +19°C° 0 mm 1 m/s 763 mmHg 32%
    09:00 +22°C° 0 mm 1 m/s 762 mmHg 29%
    10:00 +23°C° 0 mm 2 m/s 762 mmHg 27%
    11:00 +24°C° 0 mm 2 m/s 762 mmHg 26%
    12:00 +25°C° 0 mm 2 m/s 761 mmHg 24%
    13:00 +25°C° 0 mm 2 m/s 761 mmHg 25%
    14:00 +25°C° 0 mm 2 m/s 761 mmHg 27%
    15:00 +24°C° 0 mm 2 m/s 760 mmHg 29%
    16:00 +23°C° 0 mm 2 m/s 760 mmHg 35%
    17:00 +21°C° 0 mm 2 m/s 760 mmHg 42%
    18:00 +20°C° 0 mm 2 m/s 760 mmHg 49%
    19:00 +18°C° 0 mm 2 m/s 760 mmHg 54%
    20:00 +16°C° 0 mm 1 m/s 760 mmHg 60%
    21:00 +13°C° 0 mm 1 m/s 761 mmHg 66%
    22:00 +13°C° 0 mm 1 m/s 761 mmHg 63%
    23:00 +12°C° 0 mm 0 m/s 761 mmHg 61%

    Demain, 22 Mai, Mardi

    Heure Température Précipitation Vent Pression Humidité
    00:00 +12°C° 0 mm 0 m/s 761 mmHg 59%
    01:00 +12°C° 0 mm 1 m/s 760 mmHg 58%
    02:00 +12°C° 0 mm 1 m/s 760 mmHg 57%
    03:00 +12°C° 0 mm 1 m/s 760 mmHg 56%
    04:00 +12°C° 0 mm 1 m/s 760 mmHg 57%
    05:00 +12°C° 0 mm 1 m/s 759 mmHg 58%
    06:00 +13°C° 0 mm 1 m/s 759 mmHg 59%
    07:00 +15°C° 0 mm 1 m/s 758 mmHg 56%
    08:00 +18°C° 0 mm 1 m/s 758 mmHg 54%
    09:00 +21°C° 0 mm 1 m/s 757 mmHg 52%
    10:00 +20°C° 0 mm 2 m/s 757 mmHg 53%
    11:00 +21°C° 0 mm 2 m/s 756 mmHg 53%
    12:00 +22°C° 0 mm 3 m/s 756 mmHg 54%
    13:00 +21°C° 0,2 mm 3 m/s 755 mmHg 61%
    14:00 +20°C° 0,2 mm 2 m/s 755 mmHg 68%
    15:00 +19°C° 0,2 mm 2 m/s 754 mmHg 75%
    16:00 +18°C° 0,8 mm 2 m/s 754 mmHg 81%
    17:00 +18°C° 0,8 mm 1 m/s 754 mmHg 88%
    18:00 +16°C° 0,8 mm 1 m/s 753 mmHg 94%
    19:00 +16°C° 1,7 mm 1 m/s 753 mmHg 94%
    20:00 +15°C° 1,7 mm 1 m/s 752 mmHg 95%
    21:00 +15°C° 1,7 mm 1 m/s 752 mmHg 95%
    22:00 +15°C° 1,1 mm 1 m/s 752 mmHg 95%
    23:00 +15°C° 1,1 mm 1 m/s 752 mmHg 94%

    Après-demain, 23 Mai, Mercredi

    Heure Température Précipitation Vent Pression Humidité
    00:00 +15°C° 1,1 mm 1 m/s 751 mmHg 93%
    01:00 +14°C° 0,1 mm 2 m/s 751 mmHg 93%
    02:00 +12°C° 0,1 mm 3 m/s 751 mmHg 92%
    03:00 +12°C° 0,1 mm 3 m/s 750 mmHg 91%
    04:00 +11°C° 0 mm 4 m/s 750 mmHg 90%
    05:00 +11°C° 0 mm 4 m/s 750 mmHg 89%
    06:00 +9°C° 0 mm 5 m/s 751 mmHg 87%
    07:00 +12°C° 0 mm 5 m/s 751 mmHg 71%
    08:00 +14°C° 0 mm 5 m/s 751 mmHg 55%
    09:00 +16°C° 0 mm 5 m/s 751 mmHg 38%
    10:00 +17°C° 0 mm 5 m/s 751 mmHg 35%
    11:00 +20°C° 0 mm 5 m/s 751 mmHg 31%
    12:00 +21°C° 0 mm 6 m/s 751 mmHg 27%
    13:00 +22°C° 0 mm 6 m/s 750 mmHg 28%
    14:00 +22°C° 0 mm 6 m/s 750 mmHg 30%
    15:00 +22°C° 0 mm 7 m/s 750 mmHg 31%
    16:00 +21°C° 0 mm 7 m/s 750 mmHg 36%
    17:00 +20°C° 0 mm 6 m/s 750 mmHg 41%
    18:00 +19°C° 0 mm 6 m/s 750 mmHg 45%
    19:00 +16°C° 0 mm 5 m/s 750 mmHg 52%
    20:00 +14°C° 0 mm 4 m/s 751 mmHg 58%
    21:00 +12°C° 0 mm 3 m/s 751 mmHg 64%
    22:00 +11°C° 0 mm 3 m/s 752 mmHg 63%
    23:00 +11°C° 0 mm 3 m/s 752 mmHg 62%

    24 Mai, Jeudi

    Heure Température Précipitation Vent Pression Humidité
    00:00 +11°C° 0 mm 3 m/s 752 mmHg 60%
    01:00 +11°C° 0 mm 3 m/s 752 mmHg 60%
    02:00 +12°C° 0 mm 2 m/s 752 mmHg 60%
    03:00 +12°C° 0 mm 2 m/s 751 mmHg 60%
    04:00 +12°C° 0 mm 3 m/s 751 mmHg 62%
    05:00 +12°C° 0 mm 3 m/s 751 mmHg 65%
    06:00 +13°C° 0 mm 3 m/s 752 mmHg 67%
    07:00 +17°C° 0 mm 3 m/s 751 mmHg 60%
    08:00 +20°C° 0 mm 4 m/s 751 mmHg 53%
    09:00 +23°C° 0 mm 4 m/s 751 mmHg 46%
    10:00 +26°C° 0 mm 5 m/s 751 mmHg 41%
    11:00 +28°C° 0 mm 5 m/s 750 mmHg 37%
    12:00 +30°C° 0 mm 6 m/s 750 mmHg 33%
    13:00 +32°C° 0 mm 6 m/s 750 mmHg 33%
    14:00 +32°C° 0 mm 7 m/s 749 mmHg 33%
    15:00 +32°C° 0 mm 8 m/s 749 mmHg 33%
    16:00 +31°C° 0 mm 8 m/s 749 mmHg 37%
    17:00 +29°C° 0 mm 7 m/s 749 mmHg 41%
    18:00 +27°C° 0 mm 7 m/s 749 mmHg 45%
    19:00 +24°C° 0 mm 6 m/s 750 mmHg 52%
    20:00 +22°C° 0 mm 5 m/s 751 mmHg 59%
    21:00 +19°C° 0 mm 5 m/s 751 mmHg 66%
    22:00 +19°C° 0 mm 4 m/s 751 mmHg 68%
    23:00 +18°C° 0 mm 4 m/s 752 mmHg 70%

    25 Mai, Vendredi

    Heure Température Précipitation Vent Pression Humidité
    00:00 +18°C° 0 mm 4 m/s 752 mmHg 73%
    01:00 +18°C° 0 mm 4 m/s 752 mmHg 73%
    02:00 +18°C° 0 mm 4 m/s 752 mmHg 73%
    03:00 +17°C° 0 mm 4 m/s 752 mmHg 73%
    04:00 +18°C° 0 mm 4 m/s 752 mmHg 71%
    05:00 +18°C° 0 mm 4 m/s 752 mmHg 70%
    06:00 +18°C° 0 mm 4 m/s 752 mmHg 68%
    07:00 +21°C° 0 mm 4 m/s 752 mmHg 60%
    08:00 +25°C° 0 mm 4 m/s 751 mmHg 52%
    09:00 +27°C° 0 mm 5 m/s 751 mmHg 44%
    10:00 +29°C° 0 mm 5 m/s 751 mmHg 41%
    11:00 +30°C° 0 mm 6 m/s 751 mmHg 38%
    12:00 +33°C° 0 mm 6 m/s 751 mmHg 35%
    13:00 +33°C° 0 mm 6 m/s 750 mmHg 35%
    14:00 +33°C° 0 mm 6 m/s 750 mmHg 35%
    15:00 +33°C° 0 mm 6 m/s 750 mmHg 35%
    16:00 +32°C° 0 mm 6 m/s 750 mmHg 40%
    17:00 +29°C° 0 mm 6 m/s 750 mmHg 44%
    18:00 +28°C° 0 mm 6 m/s 751 mmHg 48%
    19:00 +26°C° 0 mm 6 m/s 751 mmHg 52%
    20:00 +22°C° 0 mm 5 m/s 751 mmHg 55%
    21:00 +20°C° 0 mm 4 m/s 752 mmHg 59%
    22:00 +19°C° 0 mm 4 m/s 752 mmHg 56%
    23:00 +19°C° 0 mm 4 m/s 752 mmHg 53%

    26 Mai, Samedi

    Heure Température Précipitation Vent Pression Humidité
    00:00 +18°C° 0 mm 4 m/s 753 mmHg 50%
    01:00 +18°C° 0 mm 3 m/s 753 mmHg 49%
    02:00 +18°C° 0 mm 3 m/s 753 mmHg 49%
    03:00 +17°C° 0 mm 3 m/s 753 mmHg 49%
    04:00 +17°C° 0 mm 3 m/s 753 mmHg 51%
    05:00 +17°C° 0 mm 2 m/s 754 mmHg 52%
    06:00 +17°C° 0 mm 2 m/s 754 mmHg 54%
    07:00 +20°C° 0 mm 2 m/s 754 mmHg 49%
    08:00 +25°C° 0 mm 2 m/s 754 mmHg 44%
    09:00 +28°C° 0 mm 2 m/s 754 mmHg 39%
    10:00 +28°C° 0 mm 2 m/s 754 mmHg 40%
    11:00 +29°C° 0 mm 3 m/s 754 mmHg 42%
    12:00 +29°C° 0 mm 4 m/s 754 mmHg 43%
    13:00 +29°C° 0 mm 4 m/s 754 mmHg 47%
    14:00 +28°C° 0 mm 3 m/s 753 mmHg 51%
    15:00 +27°C° 0 mm 3 m/s 753 mmHg 55%
    16:00 +26°C° 0 mm 3 m/s 753 mmHg 61%
    17:00 +24°C° 0 mm 2 m/s 754 mmHg 68%
    18:00 +23°C° 0 mm 2 m/s 754 mmHg 74%
    19:00 +20°C° 0 mm 2 m/s 754 mmHg 80%
    20:00 +20°C° 0 mm 1 m/s 755 mmHg 86%
    21:00 +18°C° 0 mm 1 m/s 755 mmHg 91%
    22:00 +18°C° 0 mm 1 m/s 755 mmHg 90%
    23:00 +18°C° 0 mm 1 m/s 755 mmHg 89%
    Voir plus